Tracking 25963 objects as of 13-Aug-2022
HD Live streaming from Space Station
objects crossing your sky now

STARLINK-4362

Track STARLINK-4362 now!
10-day predictions
STARLINK-4362 is classified as:


NORAD ID: 53043
Int'l Code: 2022-077A
Perigee: 454.9 km
Apogee: 457.2 km
Inclination: 97.7 °
Period: 93.6 minutes
Semi major axis: 6827 km
RCS: Unknown
Launch date: July 11, 2022
Source: United States (US)
Launch site: AIR FORCE WESTERN TEST RANGE (AFWTR)
aabbcc
Your satellite tracking list
Your tracking list is empty




NASA's NSSDC Master Catalog

Two Line Element Set (TLE):
1 53043U 22077A   22224.58334491 -.01215806  00000-0 -34658-1 0  9994
2 53043  97.6553  44.6632 0001630  87.7077 326.3105 15.39049889  1303
Source of the keplerian elements: AFSPC